Simultaneous Nadir Overpasses (SNOs) Predictions

Prediction of SNOs between NOAA-19 and METOP-C Satellite Orbit:

Table of predicted SNOs for the next 14.0 days since TLE Epoch: 12/24/2022
Index Date (NOAA-19) Time (NOAA-19) Lat,Lon (NOAA-19) SZA (NOAA-19 ) Date (METOP-C) Time (METOP-C) Lat,Lon (METOP-C) SZA (METOP-C ) Distance(km) Time Diff (sec)
1 12/29/2022 14:37:13 -80.92, 175.50 74.43 12/29/2022 14:38:24 -80.92, 175.50 74.40 0.13 71
2 12/29/2022 15:28:07 80.92, -17.11 105.58 12/29/2022 15:29:06 80.92, -17.27 105.59 2.85 59
3 12/29/2022 16:19:12 -80.92, 150.21 74.42 12/29/2022 16:19:45 -80.93, 150.37 74.38 3.03 33
4 12/29/2022 17:10:06 80.92, -42.40 105.60 12/29/2022 17:10:27 80.93, -42.40 105.61 0.84 21
5 12/29/2022 18:01:11 -80.92, 124.92 74.40 12/29/2022 18:01:07 -80.92, 124.87 74.41 0.99 4
6 12/29/2022 18:52:06 80.92, -68.07 105.58 12/29/2022 18:51:49 80.92, -67.90 105.58 2.96 17
7 12/29/2022 19:43:11 -80.92, 99.25 74.42 12/29/2022 19:42:29 -80.92, 99.38 74.43 2.23 42



Historial Predications of SNOs between NOAA-19 and METOP-C
